📊 Raw Sensor Data

Showing records 36676 to 36700 of 84,901 total

ID Distance (ft) Battery V Battery A Int Temp (°F) Int Humid (%) Ext Temp (°F) Solar V RSSI SNR Time Stamp
48238 15.1 3.93 0 76 43 75 5.10 -68 8 08/04/2025 10:15 AM
48237 15.1 3.93 0 75 43 74 5.10 -68 7 08/04/2025 10:00 AM
48236 15.1 4.10 0 74 43 77 5.10 -70 8 08/04/2025 09:45 AM
48235 15.1 4.09 0 72 43 76 5.10 -69 7 08/04/2025 09:30 AM
48234 15.1 4.01 0 71 43 75 5.10 -71 7 08/04/2025 09:15 AM
48233 15.1 4.08 5 70 44 73 5.10 -71 7 08/04/2025 09:00 AM
48232 15.1 3.93 0 69 44 71 5.10 -70 8 08/04/2025 08:45 AM
48231 15.1 3.93 0 68 44 73 5.10 -70 8 08/04/2025 08:30 AM
48230 15.1 3.93 0 67 43 71 5.10 -71 7 08/04/2025 08:15 AM
48229 15.1 3.99 0 66 43 70 5.10 -71 7 08/04/2025 08:00 AM
48228 15.2 4.06 49 64 43 70 4.50 -71 8 08/04/2025 07:45 AM
48227 15.1 3.95 12 63 42 69 4.50 -70 8 08/04/2025 07:30 AM
48226 15.0 3.96 9 61 42 68 4.50 -69 8 08/04/2025 07:15 AM
48225 15.0 3.94 0 58 43 65 4.50 -69 8 08/04/2025 07:00 AM
48224 14.9 3.84 0 56 43 62 4.50 -68 8 08/04/2025 06:45 AM
48223 14.9 3.82 -7 55 43 59 4.50 -68 7 08/04/2025 06:30 AM
48222 14.9 3.91 -10 54 44 56 3.20 -68 8 08/04/2025 06:15 AM
48221 14.9 3.86 -5 54 44 56 0.90 -69 7 08/04/2025 06:00 AM
48220 14.9 3.86 -5 55 44 56 0.00 -68 7 08/04/2025 05:45 AM
48219 14.9 3.86 -5 55 44 56 0.00 -70 8 08/04/2025 05:30 AM
48218 14.9 3.83 -5 55 44 56 0.10 -69 8 08/04/2025 05:15 AM
48217 14.9 3.92 -5 55 44 57 0.00 -70 8 08/04/2025 05:00 AM
48216 14.9 3.84 -5 55 44 57 0.00 -69 8 08/04/2025 04:45 AM
48215 14.9 3.86 -5 55 44 57 0.00 -69 8 08/04/2025 04:30 AM
48214 14.9 3.83 -5 55 44 57 0.00 -69 7 08/04/2025 04:15 AM